Weather History for KSDA - December, 2014

Change the Weather History Date:

Monday, December 29, 2014

  Actual Average Record
Temperature  
Mean Temperature 18 °F -  
Max Temperature 28 °F 33 °F 67 °F (1984)
Min Temperature 6 °F 15 °F -10 °F (1983)
Degree Days  
Heating Degree Days 47    
Moisture  
Dew Point 20 °F    
Average Humidity 88    
Maximum Humidity 100    
Minimum Humidity 73    
Precipitation  
Precipitation 0.00 in - - ()
Sea Level Pressure  
Sea Level Pressure 30.41 in    
Wind  
Wind Speed 11 mph (NNE)    
Max Wind Speed 21 mph    
Max Gust Speed 28 mph    
Visibility 6 miles    
Events Snow    
Averages and records for this station are not official NWS values.
T = Trace of Precipitation, MM = Missing Value Source: NWS Daily Summary

Daily Weather History Graph

Daily Weather History Graph

Search for Another Location

Airport or City:

Trip Planner

Search our weather history database for the weather conditions in past years. The results will help you decide how hot, cold, wet, or windy it might be!

Date:

Astronomy

Dec. 29, 2014 Rise Set
Actual Time 7:45 AM CST 5:02 PM CST
Civil Twilight 7:14 AM CST 5:33 PM CST
Nautical Twilight 6:39 AM CST 6:07 PM CST
Astronomical Twilight 6:06 AM CST 6:41 PM CST
Moon 12:40 PM CST (12/29) 1:01 AM CST (12/29)
Length of Visible Light 10h 18m
Length of Day
9h 17m
First Quarter, 61% of the Moon is Illuminated
Dec 29
First Quarter
Jan 4
Full
Jan 13
Last Quarter
Jan 20
New
Jan 26
First Quarter

Hourly Weather History & Observations

Time (CST) Temp. Windchill Dew Point Humidity Pressure Visibility Wind Dir Wind Speed Gust Speed Precip Events Conditions
12:15 AM 28.4 °F 23.3 °F 24.8 °F 86% 30.21 in 10.0 mi NE 4.6 mph - N/A   Mostly Cloudy
12:35 AM 28.4 °F 23.3 °F 26.6 °F 93% 30.21 in 10.0 mi NNE 4.6 mph - N/A   Mostly Cloudy
12:55 AM 26.6 °F 19.1 °F 24.8 °F 93% 30.21 in 10.0 mi North 6.9 mph - N/A   Partly Cloudy
1:15 AM 26.6 °F 18.2 °F 24.8 °F 93% 30.21 in 10.0 mi NNE 8.1 mph - N/A   Partly Cloudy
1:35 AM 26.6 °F 18.2 °F 24.8 °F 93% 30.22 in 10.0 mi NE 8.1 mph - N/A   Partly Cloudy
1:55 AM 26.6 °F 17.5 °F 24.8 °F 93% 30.22 in 9.0 mi NE 9.2 mph - N/A   Clear
2:15 AM 26.6 °F 18.2 °F 24.8 °F 93% 30.22 in 9.0 mi NE 8.1 mph - N/A   Clear
2:35 AM 24.8 °F 16.9 °F 24.8 °F 100% 30.23 in 7.0 mi NE 6.9 mph - N/A   Clear
2:55 AM 23.0 °F 14.7 °F 23.0 °F 100% 30.23 in 7.0 mi NNE 6.9 mph - N/A   Clear
3:15 AM 26.6 °F 18.2 °F 24.8 °F 93% 30.24 in 7.0 mi NE 8.1 mph - N/A   Partly Cloudy
3:35 AM 26.6 °F 20.0 °F 24.8 °F 93% 30.24 in 7.0 mi NE 5.8 mph - N/A   Partly Cloudy
3:55 AM 26.6 °F 18.2 °F 24.8 °F 93% 30.24 in 7.0 mi NE 8.1 mph - N/A   Mostly Cloudy
4:15 AM 26.6 °F 19.1 °F 24.8 °F 93% 30.24 in - NE 6.9 mph - N/A   Overcast
4:35 AM 26.6 °F 18.2 °F 24.8 °F 93% 30.24 in 6.0 mi NE 8.1 mph - N/A   Overcast
4:55 AM 26.6 °F 17.5 °F 24.8 °F 93% 30.24 in 6.0 mi NNE 9.2 mph - N/A   Overcast
5:15 AM 26.6 °F 17.5 °F 24.8 °F 93% 30.25 in 7.0 mi NNE 9.2 mph - N/A   Overcast
5:35 AM 26.6 °F 16.8 °F 24.8 °F 93% 30.26 in 6.0 mi NNE 10.4 mph - N/A   Overcast
5:55 AM 26.6 °F 17.5 °F 24.8 °F 93% 30.27 in 6.0 mi NNE 9.2 mph - N/A   Overcast
6:15 AM 26.6 °F 16.8 °F 24.8 °F 93% 30.28 in 7.0 mi NNE 10.4 mph - N/A   Overcast
6:35 AM 26.6 °F 17.5 °F 24.8 °F 93% 30.29 in 7.0 mi NNE 9.2 mph - N/A   Overcast
6:55 AM 26.6 °F 16.8 °F 24.8 °F 93% 30.30 in 7.0 mi NNE 10.4 mph - N/A   Overcast
7:15 AM 26.6 °F 16.8 °F 24.8 °F 93% 30.31 in 7.0 mi NNE 10.4 mph - N/A   Overcast
7:35 AM 26.6 °F 16.2 °F 24.8 °F 93% 30.31 in 8.0 mi NNE 11.5 mph - N/A   Overcast
7:55 AM 26.6 °F 15.7 °F 24.8 °F 93% 30.32 in 7.0 mi NNE 12.7 mph - N/A   Overcast
8:15 AM 26.6 °F 16.2 °F 24.8 °F 93% 30.32 in 7.0 mi NE 11.5 mph - N/A   Overcast
8:35 AM 26.6 °F 15.7 °F 24.8 °F 93% 30.34 in 7.0 mi NNE 12.7 mph 19.6 mph N/A   Overcast
8:55 AM 26.6 °F 15.7 °F 24.8 °F 93% 30.35 in 7.0 mi NNE 12.7 mph - N/A   Overcast
9:15 AM 28.4 °F 18.5 °F 24.8 °F 86% 30.36 in 6.0 mi NNE 11.5 mph - N/A   Mostly Cloudy
9:35 AM 28.4 °F 17.5 °F 24.8 °F 86% 30.37 in 3.0 mi NNE 13.8 mph - N/A Snow Light Snow
9:55 AM 28.4 °F 18.0 °F 26.6 °F 93% 30.38 in 3.0 mi NNE 12.7 mph - N/A Snow Light Snow
10:15 AM 26.6 °F 14.3 °F 24.8 °F 93% 30.39 in 4.0 mi NNE 16.1 mph - N/A Snow Light Snow
10:35 AM 26.6 °F 13.8 °F 24.8 °F 93% 30.40 in 1.5 mi NNE 17.3 mph - N/A   Mostly Cloudy
10:55 AM 28.4 °F 15.8 °F 24.8 °F 86% 30.39 in 1.8 mi NE 18.4 mph - N/A   Mostly Cloudy
11:15 AM 28.4 °F 17.0 °F 26.6 °F 93% 30.40 in 1.2 mi NNE 15.0 mph - N/A Snow Light Snow
11:35 AM 28.4 °F 17.5 °F 26.6 °F 93% 30.40 in 1.2 mi NNE 13.8 mph - N/A Snow Light Snow
11:55 AM 26.6 °F 13.8 °F 24.8 °F 93% 30.39 in 1.0 mi NE 17.3 mph - N/A   Scattered Clouds
12:15 PM 26.6 °F 14.7 °F 24.8 °F 93% 30.40 in 0.8 mi NE 15.0 mph - N/A Snow Light Snow
12:35 PM 28.4 °F 16.6 °F 24.8 °F 86% 30.39 in 1.5 mi NE 16.1 mph - N/A Snow Light Snow
12:55 PM 26.6 °F 13.8 °F 24.8 °F 93% 30.38 in 2.5 mi NNE 17.3 mph - N/A   Mostly Cloudy
1:15 PM 26.6 °F 15.2 °F 24.8 °F 93% 30.39 in 5.0 mi NNE 13.8 mph 19.6 mph N/A Snow Light Snow
1:35 PM 26.6 °F 15.2 °F 24.8 °F 93% 30.39 in 2.5 mi NNE 13.8 mph - N/A   Overcast
1:55 PM 26.6 °F 13.8 °F 24.8 °F 93% 30.39 in 1.0 mi NNE 17.3 mph - N/A   Overcast
2:15 PM 26.6 °F 15.2 °F 24.8 °F 93% 30.39 in 1.0 mi NNE 13.8 mph 20.7 mph N/A   Overcast
2:35 PM 26.6 °F 14.7 °F 23.0 °F 86% 30.40 in 2.5 mi NNE 15.0 mph 23.0 mph N/A   Mostly Cloudy
2:55 PM 24.8 °F 10.3 °F 23.0 °F 93% 30.41 in 1.8 mi NNE 20.7 mph - N/A   Overcast
3:15 PM 24.8 °F 11.5 °F 21.2 °F 86% 30.42 in 2.0 mi NNE 17.3 mph 24.2 mph N/A   Overcast
3:35 PM 24.8 °F 11.9 °F 21.2 °F 86% 30.43 in 2.0 mi NNE 16.1 mph 23.0 mph N/A   Overcast
3:55 PM 23.0 °F 8.7 °F 19.4 °F 86% 30.44 in 4.0 mi NNE 18.4 mph 25.3 mph N/A   Overcast
4:15 PM 23.0 °F 8.7 °F 19.4 °F 86% 30.45 in 5.0 mi NNE 18.4 mph - N/A   Overcast
4:35 PM 21.2 °F 6.8 °F 17.6 °F 86% 30.47 in 4.0 mi NNE 17.3 mph 26.5 mph N/A Snow Light Snow
4:55 PM 21.2 °F 6.0 °F 15.8 °F 80% 30.48 in 7.0 mi NNE 19.6 mph 25.3 mph N/A Snow Light Snow
5:15 PM 19.4 °F 5.0 °F 15.8 °F 86% 30.49 in 2.0 mi NNE 16.1 mph - N/A Snow Light Snow
5:35 PM 19.4 °F 6.0 °F 14.0 °F 80% 30.50 in 8.0 mi NNE 13.8 mph 24.2 mph N/A Snow Light Snow
5:55 PM 19.4 °F 5.0 °F 14.0 °F 80% 30.51 in 10.0 mi NNE 16.1 mph 21.9 mph N/A   Overcast
6:15 PM 17.6 °F 1.7 °F 14.0 °F 86% 30.52 in 10.0 mi NNE 18.4 mph 24.2 mph N/A Snow Light Snow
6:35 PM 17.6 °F 2.7 °F 12.2 °F 79% 30.53 in 7.0 mi North 16.1 mph - N/A   Mostly Cloudy
6:55 PM 15.8 °F -0.2 °F 10.4 °F 79% 30.54 in 10.0 mi North 17.3 mph - N/A   Overcast
7:15 PM 15.8 °F -0.2 °F 8.6 °F 73% 30.56 in 10.0 mi NNE 17.3 mph - N/A   Overcast
7:35 PM 15.8 °F -1.1 °F 8.6 °F 73% 30.57 in 10.0 mi North 19.6 mph - N/A   Overcast
7:55 PM 14.0 °F -2.0 °F 8.6 °F 79% 30.59 in 10.0 mi NNE 16.1 mph 27.6 mph N/A   Overcast
8:15 PM 14.0 °F -3.4 °F 8.6 °F 79% 30.59 in 10.0 mi NNE 19.6 mph 25.3 mph N/A   Overcast
8:35 PM 14.0 °F -2.0 °F 8.6 °F 79% 30.60 in 10.0 mi NNE 16.1 mph 21.9 mph N/A   Overcast
8:55 PM 12.2 °F -5.3 °F 6.8 °F 79% 30.62 in 10.0 mi NNE 18.4 mph - N/A   Overcast
9:15 PM 12.2 °F -4.8 °F 6.8 °F 79% 30.63 in 10.0 mi NNE 17.3 mph - N/A   Overcast
9:35 PM 12.2 °F -4.8 °F 6.8 °F 79% 30.63 in 10.0 mi North 17.3 mph - N/A   Overcast
9:55 PM 10.4 °F -7.7 °F 5.0 °F 79% 30.64 in 10.0 mi NNE 18.4 mph - N/A   Overcast
10:15 PM 10.4 °F -7.7 °F 5.0 °F 79% 30.65 in 10.0 mi NNE 18.4 mph 25.3 mph N/A   Overcast
10:35 PM 10.4 °F -7.2 °F 5.0 °F 79% 30.67 in 10.0 mi North 17.3 mph 24.2 mph N/A   Overcast
10:55 PM 8.6 °F -7.0 °F 3.2 °F 79% 30.68 in 10.0 mi NNE 12.7 mph 24.2 mph N/A   Overcast
11:15 PM 8.6 °F -8.9 °F 3.2 °F 79% 30.68 in 10.0 mi North 16.1 mph 23.0 mph N/A   Overcast
11:35 PM 8.6 °F -7.7 °F 3.2 °F 79% 30.69 in 10.0 mi North 13.8 mph 20.7 mph N/A   Overcast
11:55 PM 6.8 °F -9.3 °F 3.2 °F 85% 30.70 in 10.0 mi North 12.7 mph - N/A   Overcast